Flag for Germany Weather past 2 weeks in Mühlacker, Baden-Württemberg, Germany

Now
90 °F

Sunny.


Feels Like: 91 °F
Forecast: 70 / 93 °F
Wind: 8 mph from East

Location: Stuttgart-Echterdingen

Current Time: Jul 2, 2015 at 7:17:08 PM

Latest Report: Jul 2, 2015 at 6:50 PM


Visibility: 10 mi

Pressure: 30.15 "Hg

Humidity: 43%

Dew point: 64 °F

Location of MühlackerLocation

Historic Weather in Mühlacker — Graph

°F

Mühlacker temperature yesterday

Maximum temperature yesterday: 88 °F (at 3:20 PM)
Minimum temperature yesterday: 59 °F (at 4:50 AM)
Average temperature yesterday: 75 °F

Past Weeks' High & Low Weather Summary

 TemperatureHumidityPressure
High91 °F (Jul 2, 2:50 PM)100% (Jun 18, 3:50 PM)30.24 "Hg (Jun 18, 3:50 PM)
Low46 °F (Jun 24, 4:50 AM)29% (Jul 1, 1:50 PM)29.74 "Hg (Jun 22, 8:50 PM)
Average63 °F72%30.10 "Hg
* Reported Jun 17 6:20 PM — Jul 2 6:20 PM, Mühlacker, Weather by CustomWeather, © 2015

Note: Actual official high and low records may vary slightly from our data, if they occured in-between our weather recording intervals... More about our weather records

Advertising

Mühlacker weather history for previous 24 hours

 ConditionsComfort  
Time TempWeatherWind HumidityBarometerVisibility
6:20 PM
Thu, Jul 2
90 °FPassing clouds.7 mph41%30.15 "HgN/A
5:50 PM91 °FPassing clouds.7 mph36%30.15 "HgN/A
5:20 PM91 °FPassing clouds.6 mph38%30.15 "HgN/A
4:50 PM91 °FSunny.5 mph36%30.15 "Hg10 mi
4:20 PM91 °FPassing clouds.6 mph36%30.15 "HgN/A
3:50 PM91 °FPassing clouds.5 mph38%30.15 "HgN/A
3:20 PM91 °FSunny.5 mph38%30.15 "Hg10 mi
2:50 PM91 °FPassing clouds.7 mph38%30.15 "HgN/A
2:20 PM90 °FPassing clouds.7 mph38%30.15 "HgN/A
1:50 PM90 °FSunny.3 mph38%30.15 "Hg10 mi
1:20 PM88 °FPassing clouds.5 mph38%30.15 "HgN/A
12:50 PM88 °FPassing clouds.6 mph38%30.15 "HgN/A
12:20 PM88 °FPassing clouds.5 mph43%30.15 "HgN/A
11:50 AM86 °FPassing clouds.3 mph43%30.18 "HgN/A
11:20 AM84 °FSunny.3 mph51%30.15 "Hg10 mi
10:50 AM82 °FSunny.1 mph51%30.15 "Hg10 mi
10:20 AM82 °FSunny.2 mph48%30.18 "Hg10 mi
9:50 AM81 °FSunny.2 mph51%30.18 "Hg10 mi
9:20 AM77 °FSunny.2 mph54%30.15 "Hg10 mi
8:50 AM75 °FPassing clouds.3 mph65%30.15 "HgN/A
8:20 AM73 °FPassing clouds.3 mph69%30.15 "HgN/A
7:50 AM72 °FSunny.2 mph73%30.15 "Hg10 mi
7:20 AM72 °FSunny.2 mph73%30.15 "Hg10 mi
6:50 AM68 °FSunny.2 mph83%30.15 "Hg10 mi
6:20 AM66 °FClear.1 mph78%30.15 "Hg10 mi
5:50 AM64 °FClear.2 mph83%30.15 "Hg10 mi
5:20 AM64 °FClear.3 mph83%30.15 "Hg10 mi
4:50 AM64 °FClear.3 mph83%30.15 "Hg10 mi
4:20 AM64 °FClear.2 mph83%30.15 "Hg10 mi
3:50 AM66 °FClear.2 mph83%30.15 "Hg10 mi
3:20 AM66 °FClear.2 mph83%30.15 "Hg10 mi
2:50 AM66 °FClear.1 mph83%30.15 "Hg10 mi
2:20 AM68 °FClear.2 mph78%30.15 "Hg10 mi
1:50 AM68 °FClear.1 mph78%30.15 "Hg10 mi
1:20 AM68 °FClear.1 mph78%30.12 "Hg10 mi
12:50 AM70 °FClear.2 mph73%30.15 "Hg10 mi
11:50 PM
Wed, Jul 1
72 °FClear.2 mph69%30.12 "Hg10 mi
11:20 PM73 °FClear.1 mph65%30.12 "Hg10 mi
10:50 PM73 °FClear.2 mph65%30.12 "Hg10 mi
10:20 PM75 °FSunny.2 mph65%30.12 "Hg10 mi
9:50 PM75 °FSunny.5 mph65%30.12 "Hg10 mi
9:20 PM79 °FSunny.3 mph58%30.09 "Hg10 mi
8:50 PM81 °FSunny.5 mph58%30.09 "Hg10 mi
8:20 PM82 °FSunny.8 mph55%30.09 "Hg10 mi
7:50 PM84 °FSunny.7 mph48%30.09 "Hg10 mi
7:20 PM84 °FSunny.9 mph45%30.09 "Hg10 mi
Weather by CustomWeather, © 2015

See weather overviewHow to use our weather pages